[[{"header":{"parameterUnit":"m.s-1","parameterCategory":1,"la1":30.2991,"la2":30.254,"lo1":-89.0895,"lo2":-89.0444,"dy":0.0017,"dx":0.0017,"nx":28,"ny":28,"refTime":"2023-04-23T21:00:00:Z","depth":0,"parameterNumber":2,"parameterNumberName":"U-component_of_WINDS"},"data":[0,0,0,0,0,0,0,0,0,0,0,0,0,0,0,0,0,0,0,0,0,0,0,0,0,0,0,0,0,0,0,0,0,0,0,0,0,0,0,0,0,0,0,0,0,0,0,0,0,0,0,0,0,0,0,0,0,0,-1.8358,-1.8359,0,-1.8414,-1.8414,-1.8415,-1.8348,-1.8346,-1.8343,-1.8341,-1.84,-1.8403,-1.8407,0,0,0,0,0,0,0,0,0,0,0,0,0,-1.8196,-1.8199,-1.8358,-1.8359,-1.836,-1.8414,-1.8414,-1.8415,-1.8349,-1.8346,-1.8343,-1.834,-1.8398,-1.8403,-1.8408,0,0,0,0,0,0,0,0,0,0,0,0,0,-1.8261,-1.82,-1.8358,-1.8333,-1.8331,-1.8414,-1.8414,-1.8415,-1.8349,-1.8346,-1.8342,-1.8338,-1.8397,-1.8403,-1.8408,-1.8519,0,0,-1.8426,-1.8429,0,0,0,0,0,0,0,0,-1.8257,-1.8267,-1.8336,-1.8335,-1.8333,-1.837,-1.8379,-1.845,-1.835,-1.8343,-1.8341,-1.8337,-1.8393,-1.8399,-1.8418,-1.8521,-1.8524,-1.8427,-1.843,-1.8433,-1.8434,0,0,0,0,0,0,0,-1.8253,-1.8264,-1.838,-1.8337,-1.8335,-1.8319,-1.8324,-1.8392,-1.8388,-1.8343,-1.8338,-1.8346,-1.8392,-1.8412,-1.8418,-1.8525,-1.8426,-1.8432,-1.8435,-1.8437,-1.8722,-1.8726,0,0,0,0,0,0,-1.8251,-1.826,-1.8378,-1.8382,-1.8285,-1.8325,-1.8331,-1.8362,-1.8387,-1.8387,-1.8349,-1.8342,-1.8404,-1.8412,-1.842,-1.8552,-1.8433,-1.8438,-1.8441,-1.8718,-1.8723,-1.8727,0,0,0,0,0,0,-1.8248,-1.8262,-1.8376,-1.832,-1.8333,-1.8332,-1.8368,-1.8365,-1.8386,-1.8391,-1.8391,-1.837,-1.8401,-1.8412,-1.8495,-1.8553,-1.8441,-1.8446,-1.8713,-1.872,-1.8725,-1.8815,0,0,0,0,0,0,-1.8243,-1.8261,-1.8303,-1.8321,-1.8337,-1.845,-1.8371,-1.8369,-1.8396,-1.8388,-1.8412,-1.8412,-1.8399,-1.8486,-1.85,-1.8559,-1.845,-1.8708,-1.8716,-1.8723,-1.8807,-1.8824,-1.8838,0,0,0,0,0,-1.8238,-1.8327,-1.8305,-1.832,-1.8389,-1.8453,-1.8462,-1.8445,-1.8401,-1.8443,-1.8446,-1.8411,-1.8544,-1.8495,-1.8511,-1.8572,-1.8704,-1.8714,-1.8723,-1.88,-1.8821,-1.8838,0,0,0,0,0,0,-1.8316,-1.8329,-1.8305,-1.8403,-1.8427,-1.8442,-1.8495,-1.8467,-1.8505,-1.8496,-1.8474,-1.848,-1.8568,-1.8578,-1.8523,-1.868,-1.8617,-1.8629,-1.8671,-1.869,-1.8705,-1.8702,-1.8455,0,0,0,0,0,-1.8344,-1.8395,-1.8404,-1.8489,-1.8502,-1.8496,-1.8524,-1.8508,-1.8533,-1.8544,-1.8553,-1.8579,-1.8626,-1.8658,-1.8702,-1.8807,-1.8812,-1.8857,-1.8872,-1.8885,-1.8897,-1.8954,-1.8974,-1.8757,-1.8757,-1.8757,0,0,-1.8404,-1.8417,-1.8451,-1.8505,-1.8522,-1.8576,-1.8506,-1.8566,-1.8605,-1.8553,-1.8632,-1.8639,-1.8667,-1.8761,-1.8803,-1.8772,-1.8957,-1.8897,-1.8907,-1.8912,-1.8965,-1.8986,-1.9004,-1.8764,-1.8763,-1.8762,0,0,-1.8541,-1.8555,-1.8628,-1.8647,-1.8673,-1.8669,-1.8686,-1.8705,-1.8708,-1.8786,-1.8748,-1.8794,-1.8876,-1.8898,-1.8919,-1.9063,-1.9032,-1.9077,-1.9159,-1.9214,-1.9231,-1.9247,-1.9299,-1.9318,-1.9089,-1.9089,-1.9089,0,-1.8612,-1.8691,-1.8669,-1.8732,-1.8757,-1.8711,-1.8785,-1.8804,-1.8844,-1.8862,-1.8826,-1.8928,-1.8943,-1.9042,-1.9077,-1.9095,-1.9115,-1.9076,-1.9231,-1.9245,-1.9259,-1.9309,-1.9329,-1.9094,-1.9094,-1.9093,-1.9093,0,-1.8778,-1.8833,-1.8889,-1.8928,-1.8959,-1.9027,-1.9016,-1.905,-1.9032,-1.9031,-1.9111,-1.9127,-1.9174,-1.9196,-1.9178,-1.9293,-1.9272,-1.9234,-1.9171,-1.9286,-1.9332,-1.9351,-1.9102,-1.91,-1.9099,-1.9097,0,0,-1.8968,-1.8993,-1.9014,-1.9031,-1.9056,-1.9099,-1.9165,-1.9209,-1.924,-1.9268,-1.9323,-1.9393,-1.9357,-1.9382,-1.9366,-1.9415,-1.9529,-1.937,-1.9371,-1.94,-1.9656,-1.9687,-1.9709,-1.9507,-1.9511,-1.9514,-1.9654,0,-1.9106,-1.9219,-1.9201,-1.9311,-1.9363,-1.9318,-1.9376,-1.9398,-1.9398,-1.9442,-1.9442,-1.9493,-1.9441,-1.9456,-1.9502,-1.9505,-1.958,-1.9494,-1.956,-1.9562,-1.9556,-1.9733,-1.9765,-1.9897,-1.9672,-1.9675,-1.9677,0,-1.9283,-1.9317,-1.9432,-1.9449,-1.947,-1.9522,-1.9561,-1.9603,-1.9627,-1.9624,-1.9651,-1.9626,-1.9692,-1.9626,-1.9717,-1.9659,-1.9684,-1.969,-1.9694,-1.9702,-1.9628,-1.9746,-1.9939,-1.9959,-1.9706,-1.9703,-1.9701,0,-1.9411,-1.9486,-1.9565,-1.9581,-1.9602,-1.964,-1.9651,-1.9671,-1.9699,-1.9733,-1.9751,-1.9792,-1.9816,-1.9849,-1.9836,-1.9789,-1.993,-1.9862,-1.993,-1.9931,-1.9964,-1.9962,-2.0165,-1.9977,-1.9977,-1.9977,-1.9976,0,-1.9568,-1.9641,-1.9623,-1.9672,-1.9752,-1.973,-1.981,-1.9815,-1.9833,-1.9882,-1.9846,-1.9893,-1.9872,-1.9918,-1.9908,-1.9985,-1.9996,-1.9996,-1.9993,-2.0,-2.0001,-2.0018,-2.0009,-1.9982,-1.9981,-1.998,-1.9979,0,-1.9727,-1.9717,-1.9801,-1.9814,-1.9818,-1.9877,-1.9888,-1.9934,-1.9931,-1.9994,-2.0007,-2.0003,-2.0055,-2.0044,-2.0102,-2.0095,-2.0192,-2.0177,-2.0185,-2.0182,-2.0251,-2.0245,-2.0473,-2.0502,-2.0294,-2.0296,-2.0298,0,-1.9829,-1.9883,-1.9902,-1.9932,-1.9945,-1.9994,-2.0022,-2.0002,-2.0033,-2.0064,-2.0106,-2.0154,-2.0192,-2.0277,-2.0279,-2.0323,-2.0309,-2.0386,-2.0316,-2.0322,-2.0312,-2.031,-2.0316,-2.0401,-2.0403,-2.0405,-2.0407,0,-2.0011,-2.0003,-2.0045,-2.0085,-2.012,-2.015,-2.0178,-2.0204,-2.0186,-2.0223,-2.0275,-2.0304,-2.0362,-2.0411,-2.0451,-2.0462,-2.0433,-2.0428,-2.0447,-2.0456,-2.0459,-2.046,-2.0225,-2.0424,-2.0422,-2.0421,-2.042,-2.0419,-2.0145,-2.0192,-2.0212,-2.026,-2.0278,-2.0304,-2.0348,-2.035,-2.0393,-2.0438,-2.0423,-2.0483,-2.0505,-2.0555,-2.0571,-2.0618,-2.0589,-2.0615,-2.0622,-2.063,-2.0639,-2.045,-2.0625,-2.0624,-2.0624,-2.0623,-2.0623,0,-2.0327,-2.0338,-2.0381,-2.042,-2.0458,-2.0424,-2.0453,-2.0486,-2.0539,-2.0562,-2.0599,-2.0659,-2.0706,-2.0712,-2.0756,-2.0792,-2.078,-2.0805,-2.0803,-2.0806,-2.0661,-2.0641,-2.0814,-2.0814,-2.0814,-2.0814,-2.0814,-2.0814,-2.0426,-2.0504,-2.0498,-2.0584,-2.0594,-2.0652,-2.0671,-2.0695,-2.0713,-2.0782,-2.082,-2.0823,-2.0838,-2.0883,-2.0925,-2.0925,-2.0944,-2.0975,-2.097,-2.0835,-2.0816,-2.0798,-2.078,-2.0979,-2.0979,-2.1111,-2.1113,-2.1114]},{"header":{"parameterUnit":"m.s-1","parameterCategory":1,"la1":30.2991,"la2":30.254,"lo1":-89.0895,"lo2":-89.0444,"dy":0.0017,"dx":0.0017,"nx":28,"ny":28,"refTime":"2023-04-23T21:00:00:Z","depth":0,"parameterNumber":3,"parameterNumberName":"V-component_of_WINDS"},"data":[0,0,0,0,0,0,0,0,0,0,0,0,0,0,0,0,0,0,0,0,0,0,0,0,0,0,0,0,0,0,0,0,0,0,0,0,0,0,0,0,0,0,0,0,0,0,0,0,0,0,0,0,0,0,0,0,0,0,-4.9263,-4.9263,0,-4.9261,-4.9261,-4.9261,-4.917,-4.9168,-4.9166,-4.9163,-4.9161,-4.9163,-4.9165,0,0,0,0,0,0,0,0,0,0,0,0,0,-4.9187,-4.9189,-4.9263,-4.9263,-4.9263,-4.9261,-4.9261,-4.9261,-4.9171,-4.9168,-4.9165,-4.9162,-4.916,-4.9163,-4.9165,0,0,0,0,0,0,0,0,0,0,0,0,0,-4.9207,-4.919,-4.9263,-4.9218,-4.9214,-4.9261,-4.9261,-4.9261,-4.9171,-4.9168,-4.9164,-4.9161,-4.9159,-4.9163,-4.9166,-4.9256,0,0,-4.9175,-4.9177,0,0,0,0,0,0,0,0,-4.9206,-4.9209,-4.9225,-4.9221,-4.9217,-4.9212,-4.9233,-4.926,-4.9172,-4.9188,-4.9163,-4.9159,-4.9181,-4.9182,-4.919,-4.9256,-4.9256,-4.9176,-4.9178,-4.9179,-4.918,0,0,0,0,0,0,0,-4.9204,-4.9209,-4.9262,-4.9225,-4.922,-4.9197,-4.9196,-4.9238,-4.9204,-4.9186,-4.9179,-4.918,-4.9178,-4.9187,-4.9189,-4.9256,-4.9176,-4.9179,-4.918,-4.9182,-4.9396,-4.9399,0,0,0,0,0,0,-4.9209,-4.9208,-4.9262,-4.9262,-4.9202,-4.9201,-4.92,-4.9217,-4.9203,-4.9198,-4.9183,-4.9176,-4.9183,-4.9185,-4.9188,-4.9293,-4.9179,-4.9182,-4.9184,-4.9392,-4.9397,-4.9401,0,0,0,0,0,0,-4.9208,-4.9215,-4.9262,-4.9234,-4.9238,-4.9207,-4.9227,-4.9219,-4.9228,-4.9201,-4.9195,-4.9199,-4.918,-4.9184,-4.924,-4.9291,-4.9183,-4.9186,-4.9388,-4.9393,-4.9399,-4.9503,0,0,0,0,0,0,-4.9206,-4.9215,-4.925,-4.9235,-4.924,-4.9315,-4.923,-4.9222,-4.9233,-4.9224,-4.9214,-4.9209,-4.9178,-4.9236,-4.9243,-4.9294,-4.9189,-4.9383,-4.939,-4.9397,-4.9495,-4.9511,-4.9526,0,0,0,0,0,-4.9204,-4.9279,-4.9252,-4.9259,-4.9282,-4.9318,-4.932,-4.9283,-4.9238,-4.9272,-4.9255,-4.9209,-4.9285,-4.9242,-4.925,-4.9302,-4.9379,-4.9388,-4.9396,-4.9488,-4.9508,-4.9525,0,0,0,0,0,0,-4.93,-4.9276,-4.9246,-4.9318,-4.9321,-4.9302,-4.9344,-4.9306,-4.9321,-4.9312,-4.9265,-4.9263,-4.9327,-4.932,-4.9273,-4.9389,-4.9324,-4.9334,-4.9391,-4.941,-4.9425,-4.9425,-4.9192,0,0,0,0,0,-4.933,-4.9361,-4.9338,-4.9405,-4.9407,-4.9376,-4.939,-4.9361,-4.9362,-4.9362,-4.9349,-4.9352,-4.9375,-4.9392,-4.9413,-4.9493,-4.9489,-4.9533,-4.9549,-4.9562,-4.9571,-4.9612,-4.9631,-4.9429,-4.9429,-4.9428,0,0,-4.9392,-4.9382,-4.9405,-4.9424,-4.9422,-4.9455,-4.9377,-4.9416,-4.9439,-4.9368,-4.942,-4.9411,-4.941,-4.9478,-4.9508,-4.9475,-4.9626,-4.9572,-4.9583,-4.9585,-4.9623,-4.9642,-4.9659,-4.9434,-4.9433,-4.9432,0,0,-4.952,-4.9517,-4.9571,-4.9572,-4.957,-4.9549,-4.9562,-4.9549,-4.954,-4.9592,-4.9539,-4.9566,-4.9609,-4.961,-4.9617,-4.9746,-4.9704,-4.9754,-4.9835,-4.9876,-4.9892,-4.9905,-4.9951,-4.9968,-4.9764,-4.9764,-4.9764,0,-4.9597,-4.9645,-4.9604,-4.9646,-4.9655,-4.9592,-4.9647,-4.9649,-4.9655,-4.9662,-4.9625,-4.9677,-4.9672,-4.974,-4.9771,-4.9779,-4.9792,-4.9755,-4.9893,-4.9906,-4.9918,-4.9961,-4.9979,-4.977,-4.9769,-4.9769,-4.9768,0,-4.9739,-4.9773,-4.9817,-4.9824,-4.9838,-4.9886,-4.9852,-4.9872,-4.9842,-4.9825,-4.9877,-4.9869,-4.9887,-4.9901,-4.9872,-4.9965,-4.9944,-4.9901,-4.9835,-4.9945,-4.9984,-5.0,-4.9779,-4.9777,-4.9775,-4.9773,0,0,-4.9928,-4.9912,-4.9928,-4.993,-4.9924,-4.995,-4.9995,-5.0012,-5.0029,-5.0036,-5.0072,-5.0109,-5.0069,-5.0076,-5.0047,-5.0083,-5.0185,-5.0035,-5.0034,-5.0062,-5.0285,-5.0318,-5.0337,-5.0158,-5.0161,-5.0163,-5.0285,0,-5.0052,-5.0128,-5.0092,-5.0172,-5.0202,-5.0143,-5.0182,-5.0182,-5.0167,-5.019,-5.0173,-5.02,-5.0146,-5.0149,-5.0183,-5.0166,-5.0229,-5.0157,-5.019,-5.0192,-5.0191,-5.0358,-5.0392,-5.0508,-5.03,-5.0303,-5.0305,0,-5.0207,-5.0219,-5.0302,-5.029,-5.0301,-5.0337,-5.0349,-5.0373,-5.0372,-5.0358,-5.0367,-5.0329,-5.0372,-5.0307,-5.0365,-5.0316,-5.0328,-5.0322,-5.0326,-5.0326,-5.0255,-5.0363,-5.0544,-5.0561,-5.0329,-5.0327,-5.0325,0,-5.0335,-5.0373,-5.0427,-5.0431,-5.0418,-5.0444,-5.044,-5.0436,-5.0448,-5.046,-5.0467,-5.0484,-5.0492,-5.0506,-5.0473,-5.0429,-5.0536,-5.0468,-5.0525,-5.0526,-5.055,-5.0548,-5.0735,-5.0559,-5.0559,-5.0558,-5.0558,0,-5.0477,-5.053,-5.0484,-5.0518,-5.0575,-5.0533,-5.0591,-5.0581,-5.0577,-5.0607,-5.0557,-5.0586,-5.0542,-5.0567,-5.0542,-5.0593,-5.0598,-5.0588,-5.058,-5.0592,-5.0593,-5.0598,-5.0589,-5.0563,-5.0562,-5.0561,-5.056,0,-5.063,-5.0602,-5.0657,-5.064,-5.0637,-5.068,-5.0666,-5.0696,-5.0677,-5.0715,-5.0722,-5.0693,-5.0719,-5.0689,-5.0713,-5.0696,-5.0766,-5.0747,-5.0766,-5.076,-5.0818,-5.0813,-5.1014,-5.1038,-5.0848,-5.085,-5.0851,0,-5.0722,-5.0761,-5.0749,-5.0765,-5.0764,-5.0791,-5.0804,-5.0765,-5.078,-5.0781,-5.0811,-5.0833,-5.0849,-5.0894,-5.0875,-5.0893,-5.0874,-5.0943,-5.0876,-5.0886,-5.0874,-5.0871,-5.0875,-5.0956,-5.0958,-5.096,-5.0962,0,-5.0888,-5.0872,-5.0892,-5.0907,-5.0923,-5.0934,-5.094,-5.0956,-5.0915,-5.0935,-5.0961,-5.0973,-5.0998,-5.102,-5.1033,-5.1028,-5.0989,-5.0983,-5.0997,-5.1009,-5.1018,-5.1013,-5.0802,-5.0978,-5.0977,-5.0975,-5.0975,-5.0974,-5.1012,-5.1044,-5.104,-5.1064,-5.1065,-5.1072,-5.1099,-5.1083,-5.1105,-5.1121,-5.1097,-5.113,-5.1127,-5.114,-5.114,-5.1165,-5.1136,-5.1156,-5.1161,-5.1167,-5.1175,-5.1015,-5.1168,-5.1167,-5.1167,-5.1166,-5.1166,0,-5.1175,-5.1169,-5.1192,-5.1202,-5.1221,-5.1182,-5.1186,-5.1205,-5.1234,-5.1235,-5.1252,-5.1282,-5.1303,-5.1286,-5.1304,-5.1327,-5.131,-5.1333,-5.1331,-5.133,-5.1201,-5.1187,-5.1347,-5.1347,-5.1347,-5.1347,-5.1347,-5.1347,-5.1262,-5.1313,-5.1297,-5.1347,-5.1341,-5.1373,-5.1379,-5.1385,-5.1386,-5.1422,-5.1439,-5.1428,-5.1422,-5.1439,-5.1457,-5.1451,-5.146,-5.149,-5.1478,-5.1357,-5.1339,-5.1322,-5.1309,-5.1492,-5.1493,-5.1605,-5.1606,-5.1607]}]]